Location: Wells
(51.2093°N, 2.6446°W)
Time: 04:34:21
(UTC+01:00)

STARS - Pass Details

Date: 19 March 2026
Orbit: 575 x 588 km, 98.2° (Epoch: 17 April)

Event Time Altitude Azimuth Distance (km) Brightness Sun altitude
Rises 04:12:31 0° 358° (N) 2,802 ? -19.6°
Reaches altitude 10° 04:16:20 10° 321° (NW) 1,896 ? -19.0°
Enters shadow 04:16:39 10° 317° (NW) 1,868 ? -19.0°
